Altus AFB, OK

4:48 PM CDT on August 19, 2017 (GMT -0500)
Altus Air Force Base

Weather History for KLTS - September, 2014

Change the Weather History Date:

Monday, September 1, 2014

  Actual Average Record
Temperature  
Mean Temperature 86 °F -  
Max Temperature 99 °F 90 °F 105 °F (2000)
Min Temperature 74 °F 67 °F 62 °F (2007)
Cooling Degree Days 22    
Growing Degree Days 36 (Base 50)    
Moisture  
Dew Point 69 °F    
Average Humidity 56    
Maximum Humidity 85    
Minimum Humidity 36    
Precipitation  
Precipitation 0.00 in - - ()
Sea Level Pressure  
Sea Level Pressure 29.76 in    
Wind  
Wind Speed 13 mph (SSE)    
Max Wind Speed 21 mph    
Max Gust Speed 26 mph    
Visibility 10 miles    
Events      
Averages and records for this station are not official NWS values.
T = Trace of Precipitation, MM = Missing Value Source: NWS Daily Summary

Daily Weather History Graph

Daily Weather History Graph

Search for Another Location

Airport or City:

Trip Planner

Search our weather history database for the weather conditions in past years. The results will help you decide how hot, cold, wet, or windy it might be!

Date:

Astronomy

Sep. 01, 2014 Rise Set
Actual Time 7:10 AM CDT 8:03 PM CDT
Civil Twilight 6:44 AM CDT 8:29 PM CDT
Nautical Twilight 6:13 AM CDT 8:59 PM CDT
Astronomical Twilight 5:42 AM CDT 9:30 PM CDT
Moon 1:40 PM CDT (9/1) No Moon Set
Length of Visible Light 13h 44m
Length of Day
12h 53m
Waxing Crescent, 42% of the Moon is Illuminated
Sep 1
Waxing Crescent
Sep 2
First Quarter
Sep 8
Full
Sep 15
Last Quarter
Sep 24
New

Hourly Weather History & Observations

Time (CDT) Temp. Heat Index Dew Point Humidity Pressure Visibility Wind Dir Wind Speed Gust Speed Precip Events Conditions
12:58 AM 82.2 °F 85.3 °F 68.4 °F 63% 29.73 in 10.0 mi SSE 13.8 mph - N/A   Clear
1:58 AM 81.9 °F 84.6 °F 67.5 °F 62% 29.73 in 10.0 mi SSE 12.7 mph - N/A   Clear
2:58 AM 79.5 °F - 67.8 °F 67% 29.75 in 10.0 mi SSE 9.2 mph - N/A   Clear
3:58 AM 77.2 °F - 68.0 °F 73% 29.75 in 10.0 mi SE 9.2 mph - N/A   Clear
4:58 AM 75.2 °F - 67.8 °F 78% 29.76 in 10.0 mi SSE 8.1 mph - N/A   Clear
5:58 AM 74.5 °F - 67.8 °F 80% 29.76 in 10.0 mi SSE 9.2 mph - N/A   Clear
6:58 AM 74.1 °F - 68.7 °F 83% 29.77 in 10.0 mi SSE 9.2 mph - N/A   Clear
7:58 AM 75.7 °F - 70.9 °F 85% 29.79 in 10.0 mi SSE 9.2 mph - N/A   Clear
8:58 AM 80.8 °F 84.9 °F 71.8 °F 74% 29.79 in 10.0 mi South 16.1 mph 21.9 mph N/A   Clear
9:58 AM 84.6 °F 90.0 °F 71.4 °F 65% 29.80 in 10.0 mi South 16.1 mph 23.0 mph N/A   Clear
10:58 AM 88.2 °F 94.1 °F 71.2 °F 57% 29.81 in 10.0 mi SSW 18.4 mph - N/A   Clear
11:58 AM 89.8 °F 96.5 °F 71.4 °F 55% 29.80 in 10.0 mi SSW 16.1 mph 24.2 mph N/A   Clear
12:58 PM 93.2 °F 101.1 °F 71.8 °F 50% 29.78 in 10.0 mi SSW 15.0 mph - N/A   Clear
1:58 PM 94.6 °F 102.4 °F 71.8 °F 47% 29.76 in 10.0 mi South 15.0 mph 20.7 mph N/A   Clear
2:21 PM 95.0 °F 103.2 °F 71.6 °F 47% 29.82 in 10.0 mi SSW 15.0 mph 20.7 mph N/A   Clear
2:36 PM 96.8 °F 105.1 °F 71.6 °F 44% 29.81 in 10.0 mi SSE 16.1 mph 20.7 mph N/A   Clear
2:58 PM 95.9 °F 103.2 °F 71.1 °F 44% 29.75 in 10.0 mi South 16.1 mph - N/A   Clear
3:58 PM 99.0 °F 105.5 °F 68.9 °F 38% 29.73 in 10.0 mi South 16.1 mph - N/A   Clear
4:35 PM 98.6 °F 105.5 °F 69.8 °F 39% 29.77 in 10.0 mi SSE 15.0 mph - N/A   Clear
4:58 PM 99.3 °F 105.6 °F 68.7 °F 37% 29.70 in 10.0 mi SSE 10.4 mph 25.3 mph N/A   Clear
6:58 PM 97.7 °F 101.7 °F 66.7 °F 36% 29.71 in 10.0 mi SSE 20.7 mph 26.5 mph N/A   Clear
7:58 PM 93.7 °F 95.3 °F 63.9 °F 37% 29.71 in 10.0 mi SSE 15.0 mph - N/A   Clear
8:58 PM 90.3 °F 91.2 °F 62.8 °F 40% 29.72 in 10.0 mi SSE 15.0 mph - N/A   Clear
9:58 PM 88.9 °F 89.4 °F 62.2 °F 41% 29.74 in 10.0 mi SE 11.5 mph - N/A   Clear
10:58 PM 85.3 °F 87.4 °F 65.7 °F 52% 29.75 in 10.0 mi SE 11.5 mph - N/A   Clear
11:58 PM 85.5 °F 88.5 °F 67.5 °F 55% 29.77 in 10.0 mi SE 13.8 mph - N/A   Clear